Showing default

NIGHTJAR, 60535

Orbit data source: Space-Track

NIGHTJAR, 60535 is a payload satellite owned by TASA (TW) in SSO that was launched on Fri, 16 Aug 2024 UTC via an FALCON 9 launch vehicle from the Air Force Western Test Range (AFWTR). Payload-class satellites include a variety of spacecraft equipped with specific instruments for various scientific and technological missions. These include communications satellites like Starlink; space stations such as the ISS; scientific satellites like the Hubble; Earth observation satellites from companies like Planet Labs, Umbra, and HawkEye 360; GPS; miniature CubeSats for education and research; and military/defense satellites.

Loading next visibility...
Identifier
60535, 2024-149BV
Orbit
SSO
Country
Flag of TWTW / TWN
Related business
Manufacturer
NANAV/RAPTEK
Mission
Operational Civil Communications
Bus & Motor
CUBESAT 3U, Unknown motor
Mass
5 kg wet, 5 kg dry
Launch date (UTC)
2024-08-16 (2 years ago)
Launch vehicle
FALCON 9
Launch site
Air Force Western Test Range (AFWTR)
Object type
Payload
Rocket body
Debris
Shape & HBR
Box, 0.1 m
Radar Cross Section
0.080 m², Medium (>0.1 m² and < 1m²)

Expand to show TLE details & history
Last TLE update: 9 hours ago

TLE from 9 hours ago
0 NIGHTJAR
1 60535U 24149BV  26127.20312464  .00002403  00000-0  20433-3 0  9993
2 60535  97.6833 204.4861 0000617 176.5496 183.5732 14.98781203136736
Epoch: 2026-05-07T04:52Z
TLE epoch observation values (Epoch: 2026-05-07T04:52:29.968Z)
Latitude
0.00003°
Longitude
-93.69141°
Altitude
574.142 km
Speed
7.573 km/s
True Right ascension
13h 37m 56s
True Declination
0° 00' 00"
Sunlit
Object was in full shadow at epoch
Visualization orbit readout
Latitude
Unknown
Longitude
Unknown
Altitude
Unknown
Speed
Unknown
Apparent Right ascension
Unknown
Apparent Declination
Unknown
Sunlit
N/A
Visualization observer readout
Local Sidereal Time
22:19:28
Azimuth
Unknown
Elevation
Unknown
Doppler factor
Unknown
Orbital elements
Apogee altitude
568.096 km
Perigee altitude
567.239 km
Semi-major axis
6,945.804 km
Eccentricity
0.00006
Inclination
97.6833°
RAAN
204.4861°
Arg. of periapsis
176.5496°
True anomaly
183.57276°
Mean anomaly
183.5732°
Eccentric anomaly
183.57298°
Mean motion
3.74938 °/min
Orbital period
96.02 mins
BSTAR
0.00020433
Loading maneuver chart data...
Computing Atmospheric mass density...
Loading historical data...
Loading historical data...
Loading historical data...
Loading historical data...
Loading historical data...
Loading historical data...
Loading historical data...

Documentation

Showing up to 5 results
|